When you browse on this site, cookies collect data to enhance your experience and personalize the content and advertising you see.
Visit our Privacy Policy to learn more. By continuing to use the site, you agree to this use of cookies and data.
  • în România
  • Lista ţărilor
  • Pe 7 zile
  • Temperatura apei
  • Meteo pe hartă
  • Widget-uri
  • user-avatar
    Intrare

    Meteo pe oră la Trujillo

    Astăzi, 29 Ianuarie, Miercuri

    Timp Temperatura Precipitaţii Vânt Presiune Umiditate
    00:00 +18°C° 0 mm 1 m/s 646 mmHg 89%
    01:00 +18°C° 0 mm 1 m/s 646 mmHg 88%
    02:00 +18°C° 0 mm 1 m/s 646 mmHg 88%
    03:00 +18°C° 0 mm 1 m/s 646 mmHg 87%
    04:00 +18°C° 0 mm 1 m/s 646 mmHg 87%
    05:00 +18°C° 0 mm 1 m/s 646 mmHg 86%
    06:00 +19°C° 0 mm 1 m/s 647 mmHg 84%
    07:00 +19°C° 0 mm 1 m/s 647 mmHg 83%
    08:00 +21°C° 0 mm 1 m/s 648 mmHg 77%
    09:00 +23°C° 0 mm 1 m/s 649 mmHg 71%
    10:00 +25°C° 0 mm 1 m/s 650 mmHg 65%
    11:00 +25°C° 0.2 mm 1 m/s 649 mmHg 68%
    12:00 +24°C° 0.2 mm 1 m/s 649 mmHg 72%
    13:00 +24°C° 0.2 mm 1 m/s 648 mmHg 75%
    14:00 +23°C° 0.5 mm 1 m/s 647 mmHg 79%
    15:00 +23°C° 0.5 mm 1 m/s 647 mmHg 82%
    16:00 +20°C° 0.5 mm 0 m/s 646 mmHg 85%
    17:00 +21°C° 0.2 mm 1 m/s 646 mmHg 87%
    18:00 +20°C° 0.2 mm 1 m/s 646 mmHg 89%
    19:00 +19°C° 0.2 mm 1 m/s 646 mmHg 91%
    20:00 +19°C° 0 mm 1 m/s 646 mmHg 91%
    21:00 +19°C° 0 mm 1 m/s 646 mmHg 90%
    22:00 +18°C° 0 mm 1 m/s 647 mmHg 90%
    23:00 +18°C° 0 mm 1 m/s 646 mmHg 89%

    Mâine, 30 Ianuarie, Joi

    Timp Temperatura Precipitaţii Vânt Presiune Umiditate
    00:00 +18°C° 0 mm 1 m/s 646 mmHg 88%
    01:00 +16°C° 0 mm 1 m/s 646 mmHg 88%
    02:00 +16°C° 0 mm 1 m/s 646 mmHg 87%
    03:00 +16°C° 0 mm 1 m/s 646 mmHg 86%
    04:00 +16°C° 0 mm 1 m/s 646 mmHg 86%
    05:00 +18°C° 0 mm 1 m/s 646 mmHg 84%
    06:00 +18°C° 0 mm 1 m/s 647 mmHg 82%
    07:00 +18°C° 0 mm 1 m/s 648 mmHg 81%
    08:00 +21°C° 0 mm 1 m/s 649 mmHg 72%
    09:00 +23°C° 0 mm 1 m/s 649 mmHg 63%
    10:00 +25°C° 0 mm 1 m/s 650 mmHg 54%
    11:00 +26°C° 0 mm 1 m/s 650 mmHg 53%
    12:00 +27°C° 0 mm 1 m/s 649 mmHg 52%
    13:00 +27°C° 0 mm 1 m/s 649 mmHg 51%
    14:00 +26°C° 0.1 mm 1 m/s 648 mmHg 55%
    15:00 +25°C° 0.1 mm 1 m/s 647 mmHg 59%
    16:00 +25°C° 0.1 mm 1 m/s 647 mmHg 63%
    17:00 +23°C° 0 mm 1 m/s 646 mmHg 70%
    18:00 +21°C° 0 mm 1 m/s 646 mmHg 77%
    19:00 +20°C° 0 mm 1 m/s 646 mmHg 84%
    20:00 +19°C° 0 mm 1 m/s 647 mmHg 83%
    21:00 +19°C° 0 mm 1 m/s 647 mmHg 82%
    22:00 +19°C° 0 mm 1 m/s 647 mmHg 80%
    23:00 +18°C° 0 mm 1 m/s 647 mmHg 80%

    Poimâine, 31 Ianuarie, Vineri

    Timp Temperatura Precipitaţii Vânt Presiune Umiditate
    00:00 +18°C° 0 mm 1 m/s 647 mmHg 80%
    01:00 +18°C° 0 mm 1 m/s 646 mmHg 80%
    02:00 +18°C° 0 mm 1 m/s 646 mmHg 80%
    03:00 +18°C° 0 mm 1 m/s 646 mmHg 81%
    04:00 +18°C° 0 mm 1 m/s 646 mmHg 81%
    05:00 +18°C° 0 mm 1 m/s 647 mmHg 81%
    06:00 +19°C° 0 mm 1 m/s 647 mmHg 81%
    07:00 +19°C° 0 mm 1 m/s 648 mmHg 80%
    08:00 +21°C° 0 mm 1 m/s 649 mmHg 74%
    09:00 +23°C° 0 mm 1 m/s 650 mmHg 68%
    10:00 +25°C° 0 mm 1 m/s 650 mmHg 62%
    11:00 +26°C° 0.1 mm 1 m/s 650 mmHg 59%
    12:00 +27°C° 0.1 mm 1 m/s 650 mmHg 57%
    13:00 +27°C° 0.1 mm 1 m/s 649 mmHg 54%
    14:00 +26°C° 0.3 mm 1 m/s 648 mmHg 60%
    15:00 +25°C° 0.3 mm 1 m/s 648 mmHg 66%
    16:00 +24°C° 0.3 mm 1 m/s 647 mmHg 73%
    17:00 +23°C° 0.3 mm 1 m/s 647 mmHg 79%
    18:00 +21°C° 0.3 mm 1 m/s 647 mmHg 85%
    19:00 +20°C° 0.3 mm 1 m/s 646 mmHg 91%
    20:00 +19°C° 0 mm 1 m/s 647 mmHg 90%
    21:00 +19°C° 0 mm 1 m/s 647 mmHg 90%
    22:00 +19°C° 0 mm 1 m/s 647 mmHg 89%
    23:00 +19°C° 0 mm 1 m/s 647 mmHg 88%

    1 Februarie, Sâmbătă

    Timp Temperatura Precipitaţii Vânt Presiune Umiditate
    00:00 +18°C° 0 mm 1 m/s 647 mmHg 88%
    01:00 +18°C° 0 mm 1 m/s 646 mmHg 87%
    02:00 +18°C° 0 mm 1 m/s 646 mmHg 87%
    03:00 +18°C° 0 mm 1 m/s 646 mmHg 87%
    04:00 +18°C° 0 mm 1 m/s 646 mmHg 87%
    05:00 +19°C° 0 mm 1 m/s 647 mmHg 86%
    06:00 +19°C° 0 mm 1 m/s 647 mmHg 85%
    07:00 +19°C° 0 mm 1 m/s 648 mmHg 83%
    08:00 +22°C° 0 mm 1 m/s 649 mmHg 76%
    09:00 +24°C° 0 mm 1 m/s 650 mmHg 68%
    10:00 +26°C° 0 mm 1 m/s 651 mmHg 61%
    11:00 +26°C° 0 mm 1 m/s 650 mmHg 60%
    12:00 +27°C° 0 mm 1 m/s 649 mmHg 58%
    13:00 +27°C° 0 mm 1 m/s 649 mmHg 57%
    14:00 +26°C° 0.2 mm 1 m/s 648 mmHg 62%
    15:00 +25°C° 0.2 mm 1 m/s 647 mmHg 68%
    16:00 +25°C° 0.2 mm 1 m/s 646 mmHg 73%
    17:00 +23°C° 0.2 mm 1 m/s 646 mmHg 78%
    18:00 +22°C° 0.2 mm 1 m/s 646 mmHg 84%
    19:00 +19°C° 0.2 mm 0 m/s 646 mmHg 89%
    20:00 +18°C° 0.1 mm 0 m/s 646 mmHg 89%
    21:00 +20°C° 0.1 mm 1 m/s 647 mmHg 89%
    22:00 +20°C° 0.1 mm 1 m/s 647 mmHg 89%
    23:00 +19°C° 0 mm 1 m/s 647 mmHg 89%

    2 Februarie, Duminică

    Timp Temperatura Precipitaţii Vânt Presiune Umiditate
    00:00 +19°C° 0 mm 1 m/s 646 mmHg 89%
    01:00 +19°C° 0 mm 1 m/s 646 mmHg 89%
    02:00 +18°C° 0 mm 1 m/s 646 mmHg 89%
    03:00 +18°C° 0 mm 1 m/s 646 mmHg 89%
    04:00 +18°C° 0 mm 1 m/s 646 mmHg 88%
    05:00 +18°C° 0 mm 1 m/s 646 mmHg 87%
    06:00 +19°C° 0 mm 1 m/s 647 mmHg 86%
    07:00 +19°C° 0 mm 1 m/s 647 mmHg 85%
    08:00 +21°C° 0 mm 1 m/s 648 mmHg 78%
    09:00 +23°C° 0 mm 1 m/s 649 mmHg 70%
    10:00 +25°C° 0 mm 1 m/s 650 mmHg 62%
    11:00 +25°C° 0.1 mm 1 m/s 650 mmHg 64%
    12:00 +25°C° 0.1 mm 1 m/s 649 mmHg 65%
    13:00 +26°C° 0.1 mm 1 m/s 648 mmHg 66%
    14:00 +25°C° 0.3 mm 1 m/s 648 mmHg 71%
    15:00 +24°C° 0.3 mm 1 m/s 647 mmHg 75%
    16:00 +23°C° 0.3 mm 1 m/s 646 mmHg 80%
    17:00 +22°C° 0.2 mm 1 m/s 646 mmHg 84%
    18:00 +19°C° 0.2 mm 0 m/s 646 mmHg 87%
    19:00 +18°C° 0.2 mm 0 m/s 646 mmHg 91%
    20:00 +20°C° 0 mm 1 m/s 646 mmHg 90%
    21:00 +19°C° 0 mm 1 m/s 647 mmHg 90%
    22:00 +19°C° 0 mm 1 m/s 647 mmHg 89%
    23:00 +18°C° 0 mm 1 m/s 647 mmHg 88%

    3 Februarie, Luni

    Timp Temperatura Precipitaţii Vânt Presiune Umiditate
    00:00 +18°C° 0 mm 1 m/s 646 mmHg 86%
    01:00 +16°C° 0 mm 1 m/s 646 mmHg 85%
    02:00 +16°C° 0 mm 1 m/s 646 mmHg 83%
    03:00 +16°C° 0 mm 1 m/s 646 mmHg 82%
    04:00 +15°C° 0 mm 2 m/s 646 mmHg 81%
    05:00 +16°C° 0 mm 2 m/s 646 mmHg 79%
    06:00 +16°C° 0 mm 2 m/s 647 mmHg 78%
    07:00 +18°C° 0 mm 1 m/s 648 mmHg 76%
    08:00 +20°C° 0 mm 1 m/s 649 mmHg 68%
    09:00 +23°C° 0 mm 1 m/s 650 mmHg 61%
    10:00 +25°C° 0 mm 1 m/s 651 mmHg 53%
    11:00 +26°C° 0 mm 1 m/s 650 mmHg 50%
    12:00 +27°C° 0 mm 1 m/s 650 mmHg 48%
    13:00 +28°C° 0 mm 1 m/s 650 mmHg 45%
    14:00 +27°C° 0 mm 1 m/s 649 mmHg 49%
    15:00 +27°C° 0 mm 1 m/s 648 mmHg 52%
    16:00 +26°C° 0 mm 2 m/s 647 mmHg 56%
    17:00 +24°C° 0 mm 1 m/s 647 mmHg 66%
    18:00 +22°C° 0 mm 1 m/s 647 mmHg 75%
    19:00 +20°C° 0 mm 1 m/s 647 mmHg 84%
    20:00 +19°C° 0 mm 1 m/s 647 mmHg 82%
    21:00 +19°C° 0 mm 1 m/s 647 mmHg 81%
    22:00 +19°C° 0 mm 1 m/s 648 mmHg 79%
    23:00 +18°C° 0 mm 1 m/s 648 mmHg 76%
    Arată mai mult